Location: Unspecified
(51.0950°N, 12.9690°E)
Time: 21:22:32
(UTC+00:00)

JY1SAT - Pass Details

Date: 03 May 2024
Orbit: 538 x 552 km, 97.5° (Epoch: 25 May)

Event Time Altitude Azimuth Distance (km) Brightness Sun altitude
Exits shadow 21:14:55 - 226° (SW) 2,032 ? -18.7°
Reaches altitude 10° 21:15:46 10° 235° (SW) 1,809 ? -18.8°
Maximum altitude 21:18:03 15° 271° (W) 1,519 ? -18.9°
Drops below altitude 10° 21:20:21 10° 307° (NW) 1,814 ? -19.1°
Sets 21:23:17 0° 331° (NNW) 2,711 ? -19.3°
